Home   Weather   Alexandria   Past weeks
Flag for USA

Past Weather in Alexandria, Virginia, USA — Yesterday and Last 2 Weeks

Now
65 °F

Clear.


Feels Like: 65 °F
Forecast: 70 / 48 °F
Wind: No wind

Location: Reagan National Airport

Current Time: Oct 14, 2019 at 9:33:59 pm

Latest Report: Oct 14, 2019 at 8:52 pm


Visibility: 10 mi

Pressure: 30.02 "Hg

Humidity: 61%

Dew Point: 51 °F

Location of AlexandriaLocation

Past Weather in Alexandria — Graph

°F

Alexandria Temperature Yesterday

Maximum temperature yesterday: 65 °F (at 12:52 pm)
Minimum temperature yesterday: 56 °F (at 6:52 am)
Average temperature yesterday: 59 °F

High & Low Weather Summary for the Past Weeks

 TemperatureHumidityPressure
High97 °F (Oct 2, 3:52 pm)91% (Oct 2, 7:52 am)30.44 "Hg (Oct 2, 7:52 am)
Low49 °F (Oct 5, 7:52 am)27% (Oct 14, 2:52 pm)29.82 "Hg (Oct 2, 5:52 pm)
Average69 °F64%30.13 "Hg
* Reported Sep 29 7:52 pm — Oct 14 7:52 pm, Alexandria. Weather by CustomWeather, © 2019

Note: Actual official high and low records may vary slightly from our data, if they occured in-between our weather recording intervals... More about our weather records

Advertising

Alexandria Weather History for the Previous 24 Hours

Scroll right to see more
 ConditionsComfort  
Time TempWeatherWind HumidityBarometerVisibility
7:52 pm
Mon, Oct 14
67 °FClear.6 mph55%30.01 "Hg10 mi
6:52 pm68 °FClear.6 mph57%29.99 "Hg10 mi
5:52 pm72 °FSunny.10 mph48%29.97 "Hg10 mi
4:52 pm76 °FSunny.12 mph30%29.96 "Hg10 mi
3:52 pm77 °FSunny.12 mph28%29.97 "Hg10 mi
2:52 pm76 °FSunny.7 mph27%29.98 "Hg10 mi
1:52 pm73 °FSunny.8 mph38%30.00 "Hg10 mi
12:54 pm73 °FSunny.6 mph28%30.03 "Hg10 mi
11:52 am68 °FSunny.5 mph55%30.04 "Hg10 mi
10:52 am63 °FSunny.6 mph70%30.06 "Hg10 mi
9:52 am60 °FSunny.3 mph78%30.06 "Hg10 mi
8:52 am59 °FSunny.3 mph78%30.05 "Hg10 mi
7:52 am54 °FScattered clouds.No wind86%30.03 "Hg9 mi
6:52 am53 °FPassing clouds.6 mph89%30.02 "Hg10 mi
5:52 am54 °FPassing clouds.No wind90%29.99 "Hg10 mi
4:52 am55 °FPassing clouds.No wind90%29.97 "Hg10 mi
3:52 am55 °FPassing clouds.3 mph90%29.98 "Hg10 mi
2:52 am56 °FPassing clouds.No wind90%29.98 "Hg10 mi
1:54 am58 °FPassing clouds.No wind87%30.00 "Hg10 mi
12:52 am60 °FPartly cloudy.No wind78%30.00 "Hg10 mi
11:52 pm
Sun, Oct 13
60 °FOvercast.No wind78%30.02 "Hg10 mi
10:52 pm59 °FMostly cloudy.No wind81%30.01 "Hg10 mi
9:52 pm59 °FOvercast.3 mph81%30.02 "Hg10 mi
Weather by CustomWeather, © 2019

See weather overview